Flag for Spain Weather past 2 weeks in Huelva, Spain

Now
77 °F

Sunny.


Feels Like: 78 °F
Forecast: 62 / 91 °F
Wind: 12 mph from East

Location: Rota Airport

Current Time: Oct 20, 2014 at 10:47:46 AM

Latest Report: Oct 20, 2014 at 10:00 AM


Visibility: 10 mi

Pressure: 30.01 "Hg

Humidity: 39%

Dew point: 50 °F

Location of HuelvaLocation

Historic Weather in Huelva — Graph

°F

Huelva temperature yesterday

Maximum temperature yesterday: 86 °F (at 2:00 PM)
Minimum temperature yesterday: 64 °F (at 5:00 AM)
Average temperature yesterday: 74 °F

Past Weeks' High & Low Weather Summary

 TemperatureHumidityPressure
High86 °F (Oct 19, 2:00 PM)100% (Oct 7, 9:00 AM)30.07 "Hg (Oct 7, 9:00 AM)
Low59 °F (Oct 7, 7:00 AM)30% (Oct 20, 4:00 AM)29.71 "Hg (Oct 11, 8:00 PM)
Average69 °F80%29.97 "Hg
* Reported Oct 5 9:00 AM — Oct 20 9:00 AM, Huelva, Weather by CustomWeather, © 2014

Note: Actual official high and low records may vary slightly from our data, if they occured in-between our weather recording intervals... More about our weather records

Advertising

Huelva weather history for previous 24 hours

 ConditionsComfort  
Time TempWeatherWind HumidityBarometerVisibility
9:00 AM
Oct 20
77 °FClear.15 mph36%29.98 "Hg10 mi
8:00 AM77 °FPassing clouds.14 mph34%29.98 "HgN/A
7:00 AM77 °FClear.16 mph34%29.95 "Hg10 mi
5:00 AM79 °FClear.21 mph30%29.95 "Hg10 mi
4:00 AM79 °FClear.20 mph30%29.95 "Hg10 mi
3:00 AM79 °FClear.21 mph32%29.95 "Hg10 mi
2:00 AM77 °FPassing clouds.16 mph34%29.98 "HgN/A
1:00 AM77 °FClear.17 mph36%29.98 "Hg10 mi
12:00 AM77 °FPassing clouds.13 mph36%29.98 "HgN/A
11:00 PM
Oct 19
75 °FClear.13 mph39%29.98 "Hg10 mi
10:00 PM77 °FClear.10 mph36%29.98 "Hg10 mi
9:00 PM79 °FPassing clouds.17 mph34%29.98 "HgN/A
8:00 PM81 °FSunny.12 mph37%29.95 "Hg10 mi
7:00 PM82 °FPassing clouds.12 mph35%29.95 "HgN/A
6:00 PM84 °FSunny.15 mph37%29.95 "Hg10 mi
5:00 PM86 °FSunny.17 mph35%29.95 "Hg10 mi
4:00 PM86 °FSunny.17 mph35%29.95 "Hg10 mi
3:00 PM86 °FPassing clouds.14 mph35%29.95 "HgN/A
2:00 PM86 °FPassing clouds.10 mph38%29.98 "HgN/A
1:00 PM82 °FPassing clouds.8 mph45%30.01 "HgN/A
12:00 PM79 °FPassing clouds.7 mph51%30.01 "HgN/A
11:00 AM72 °FSunny.2 mph73%30.01 "Hg10 mi
10:00 AM66 °FSunny.1 mph94%30.01 "Hg10 mi
Weather by CustomWeather, © 2014

See weather overviewHow to use our weather pages